When you browse on this site, cookies collect data to enhance your experience and personalize the content and advertising you see.
Visit our Privacy Policy to learn more. By continuing to use the site, you agree to this use of cookies and data.
  • In Hungary
  • List of Countries
  • For 7 days
  • Water Temperature
  • Satellite Maps
  • Weather Map
  • News
  • Weather Widgets
  • user-avatar
    Login

    Hourly Weather Gornostaevka

    Today, 19 November, Monday

    Time Temperature Precipitation Wind Pressure Humidity
    00:00 +1°C° 0 mm 2 mps 761 mmHg 85%
    01:00 +1°C° 0 mm 2 mps 761 mmHg 84%
    02:00 0°C° 0 mm 3 mps 761 mmHg 83%
    03:00 0°C° 0 mm 3 mps 761 mmHg 81%
    04:00 0°C° 0 mm 3 mps 761 mmHg 79%
    05:00 0°C° 0 mm 3 mps 761 mmHg 78%
    06:00 0°C° 0 mm 4 mps 760 mmHg 76%
    07:00 0°C° 0 mm 4 mps 760 mmHg 75%
    08:00 0°C° 0 mm 5 mps 760 mmHg 74%
    09:00 0°C° 0.1 mm 5 mps 760 mmHg 75%
    10:00 +1°C° 0.1 mm 5 mps 760 mmHg 76%
    11:00 +1°C° 0.1 mm 5 mps 760 mmHg 76%
    12:00 +1°C° 0.6 mm 6 mps 759 mmHg 77%
    13:00 +2°C° 0.6 mm 6 mps 759 mmHg 78%
    14:00 +2°C° 0.6 mm 7 mps 758 mmHg 79%
    15:00 +2°C° 1.1 mm 7 mps 758 mmHg 81%
    16:00 +2°C° 1.1 mm 7 mps 757 mmHg 83%
    17:00 0°C° 1.1 mm 8 mps 757 mmHg 86%
    18:00 +1°C° 0.8 mm 8 mps 756 mmHg 87%
    19:00 +1°C° 0.8 mm 9 mps 756 mmHg 88%
    20:00 +1°C° 0.8 mm 9 mps 755 mmHg 89%
    21:00 +2°C° 0.9 mm 9 mps 755 mmHg 89%
    22:00 +2°C° 0.9 mm 9 mps 754 mmHg 90%
    23:00 +4°C° 0.9 mm 8 mps 754 mmHg 90%

    Tomorrow, 20 November, Tuesday

    Time Temperature Precipitation Wind Pressure Humidity
    00:00 +4°C° 0.3 mm 8 mps 754 mmHg 91%
    01:00 +4°C° 0.3 mm 7 mps 754 mmHg 92%
    02:00 +4°C° 0.3 mm 6 mps 753 mmHg 92%
    03:00 +4°C° 0.3 mm 6 mps 753 mmHg 93%
    04:00 +5°C° 0.3 mm 5 mps 753 mmHg 93%
    05:00 +5°C° 0.3 mm 5 mps 753 mmHg 93%
    06:00 +3°C° 0.2 mm 6 mps 754 mmHg 91%
    07:00 +3°C° 0.2 mm 6 mps 755 mmHg 89%
    08:00 +2°C° 0.2 mm 7 mps 755 mmHg 88%
    09:00 +2°C° 0 mm 6 mps 756 mmHg 85%
    10:00 +2°C° 0 mm 6 mps 756 mmHg 82%
    11:00 +2°C° 0 mm 6 mps 757 mmHg 80%
    12:00 +2°C° 0 mm 6 mps 757 mmHg 79%
    13:00 +2°C° 0 mm 5 mps 758 mmHg 78%
    14:00 +2°C° 0 mm 5 mps 758 mmHg 77%
    15:00 +2°C° 0 mm 5 mps 759 mmHg 78%
    16:00 +1°C° 0 mm 5 mps 759 mmHg 79%
    17:00 +1°C° 0 mm 4 mps 759 mmHg 80%
    18:00 +1°C° 0 mm 4 mps 760 mmHg 81%
    19:00 0°C° 0 mm 4 mps 760 mmHg 82%
    20:00 0°C° 0 mm 4 mps 760 mmHg 82%
    21:00 0°C° 0 mm 4 mps 760 mmHg 84%
    22:00 +1°C° 0 mm 3 mps 760 mmHg 85%
    23:00 0°C° 0 mm 3 mps 760 mmHg 86%

    Day after tomorrow, 21 November, Wednesday

    Time Temperature Precipitation Wind Pressure Humidity
    00:00 0°C° 0 mm 3 mps 760 mmHg 85%
    01:00 +1°C° 0 mm 3 mps 760 mmHg 85%
    02:00 +1°C° 0 mm 3 mps 761 mmHg 84%
    03:00 +1°C° 0 mm 3 mps 760 mmHg 84%
    04:00 0°C° 0 mm 4 mps 760 mmHg 85%
    05:00 -1°C° 0 mm 4 mps 760 mmHg 85%
    06:00 -1°C° 0.1 mm 4 mps 760 mmHg 84%
    07:00 0°C° 0.1 mm 4 mps 760 mmHg 84%
    08:00 0°C° 0.1 mm 4 mps 760 mmHg 84%
    09:00 0°C° 0.1 mm 4 mps 760 mmHg 82%
    10:00 0°C° 0.1 mm 5 mps 760 mmHg 81%
    11:00 +1°C° 0.1 mm 5 mps 760 mmHg 80%
    12:00 +1°C° 0.1 mm 5 mps 759 mmHg 78%
    13:00 +1°C° 0.1 mm 5 mps 759 mmHg 77%
    14:00 +2°C° 0.1 mm 5 mps 759 mmHg 76%
    15:00 +1°C° 0 mm 5 mps 759 mmHg 78%
    16:00 0°C° 0 mm 5 mps 759 mmHg 80%
    17:00 0°C° 0 mm 5 mps 759 mmHg 82%
    18:00 0°C° 0 mm 5 mps 759 mmHg 82%
    19:00 -1°C° 0 mm 5 mps 759 mmHg 82%
    20:00 -1°C° 0 mm 5 mps 759 mmHg 82%
    21:00 -2°C° 0 mm 5 mps 760 mmHg 82%
    22:00 -2°C° 0 mm 5 mps 760 mmHg 82%
    23:00 -4°C° 0 mm 5 mps 760 mmHg 82%

    22 November, Thursday

    Time Temperature Precipitation Wind Pressure Humidity
    00:00 -4°C° 0 mm 5 mps 760 mmHg 82%
    01:00 -4°C° 0 mm 5 mps 760 mmHg 82%
    02:00 -4°C° 0 mm 5 mps 761 mmHg 82%
    03:00 -5°C° 0 mm 5 mps 761 mmHg 82%
    04:00 -5°C° 0 mm 5 mps 761 mmHg 82%
    05:00 -5°C° 0 mm 5 mps 761 mmHg 82%
    06:00 -5°C° 0 mm 5 mps 761 mmHg 80%
    07:00 -5°C° 0 mm 5 mps 761 mmHg 78%
    08:00 -5°C° 0 mm 5 mps 762 mmHg 76%
    09:00 -4°C° 0 mm 5 mps 762 mmHg 71%
    10:00 -2°C° 0 mm 5 mps 762 mmHg 66%
    11:00 -1°C° 0 mm 5 mps 762 mmHg 61%
    12:00 0°C° 0 mm 5 mps 762 mmHg 60%
    13:00 0°C° 0 mm 5 mps 762 mmHg 60%
    14:00 0°C° 0 mm 5 mps 762 mmHg 59%
    15:00 -1°C° 0 mm 5 mps 762 mmHg 66%
    16:00 -2°C° 0 mm 4 mps 762 mmHg 72%
    17:00 -3°C° 0 mm 4 mps 762 mmHg 78%
    18:00 -3°C° 0 mm 4 mps 763 mmHg 80%
    19:00 -4°C° 0 mm 4 mps 763 mmHg 81%
    20:00 -4°C° 0 mm 4 mps 763 mmHg 83%
    21:00 -4°C° 0 mm 4 mps 764 mmHg 83%
    22:00 -4°C° 0 mm 3 mps 764 mmHg 83%
    23:00 -5°C° 0 mm 3 mps 764 mmHg 83%

    23 November, Friday

    Time Temperature Precipitation Wind Pressure Humidity
    00:00 -5°C° 0 mm 3 mps 764 mmHg 83%
    01:00 -5°C° 0 mm 3 mps 764 mmHg 82%
    02:00 -5°C° 0 mm 3 mps 764 mmHg 82%
    03:00 -5°C° 0 mm 3 mps 765 mmHg 83%
    04:00 -5°C° 0 mm 3 mps 765 mmHg 84%
    05:00 -5°C° 0 mm 3 mps 765 mmHg 85%
    06:00 -5°C° 0 mm 3 mps 765 mmHg 84%
    07:00 -5°C° 0 mm 4 mps 766 mmHg 84%
    08:00 -5°C° 0 mm 4 mps 766 mmHg 84%
    09:00 -4°C° 0 mm 4 mps 767 mmHg 78%
    10:00 -2°C° 0 mm 4 mps 767 mmHg 73%
    11:00 -1°C° 0 mm 4 mps 767 mmHg 68%
    12:00 -1°C° 0 mm 4 mps 767 mmHg 66%
    13:00 +1°C° 0 mm 3 mps 767 mmHg 65%
    14:00 +1°C° 0 mm 3 mps 767 mmHg 63%
    15:00 0°C° 0 mm 3 mps 767 mmHg 69%
    16:00 -1°C° 0 mm 3 mps 767 mmHg 75%
    17:00 -2°C° 0 mm 3 mps 767 mmHg 81%
    18:00 -4°C° 0 mm 3 mps 768 mmHg 83%
    19:00 -4°C° 0 mm 3 mps 768 mmHg 85%
    20:00 -3°C° 0 mm 2 mps 768 mmHg 87%
    21:00 -3°C° 0 mm 2 mps 768 mmHg 87%
    22:00 -3°C° 0 mm 2 mps 768 mmHg 87%
    23:00 -4°C° 0 mm 2 mps 768 mmHg 88%

    24 November, Saturday

    Time Temperature Precipitation Wind Pressure Humidity
    00:00 -4°C° 0 mm 2 mps 767 mmHg 87%
    01:00 -4°C° 0 mm 2 mps 767 mmHg 87%
    02:00 -4°C° 0 mm 2 mps 767 mmHg 86%
    03:00 -4°C° 0 mm 2 mps 767 mmHg 85%
    04:00 -4°C° 0 mm 2 mps 766 mmHg 84%
    05:00 -4°C° 0 mm 2 mps 766 mmHg 83%
    06:00 -2°C° 0 mm 1 mps 766 mmHg 81%
    07:00 -1°C° 0 mm 1 mps 766 mmHg 79%
    08:00 -1°C° 0 mm 1 mps 766 mmHg 77%
    09:00 -2°C° 0 mm 2 mps 766 mmHg 70%
    10:00 +1°C° 0 mm 2 mps 765 mmHg 63%
    11:00 +2°C° 0 mm 2 mps 765 mmHg 57%
    12:00 +2°C° 0 mm 2 mps 764 mmHg 55%
    13:00 +4°C° 0 mm 1 mps 764 mmHg 53%
    14:00 +4°C° 0 mm 1 mps 763 mmHg 51%
    15:00 +3°C° 0 mm 1 mps 763 mmHg 57%
    16:00 +2°C° 0 mm 1 mps 763 mmHg 62%
    17:00 0°C° 0 mm 1 mps 762 mmHg 68%
    18:00 0°C° 0 mm 1 mps 762 mmHg 70%
    19:00 0°C° 0 mm 1 mps 762 mmHg 72%
    20:00 0°C° 0 mm 1 mps 762 mmHg 74%
    21:00 -1°C° 0 mm 1 mps 761 mmHg 76%
    22:00 -1°C° 0 mm 1 mps 761 mmHg 78%
    23:00 -1°C° 0 mm 1 mps 761 mmHg 79%
    Show more